Regional Weather Roundup
Issued by NWS Charleston, SC

Current Version | Previous Version | Text Only | Print | Product List | Glossary On
Versions: 1 2 3 4 5 6 7 8 9 10 11 12 13 14 15 16 17 18 19 20 21 22 23 24 25 26 27 28 29 30 31 32 33 34 35 36 37 38 39 40 41 42 43 44 45 46 47 48 49 50
000 ASUS42 KCHS 212112 RWRCHS REGIONAL WEATHER ROUNDUP NATIONAL WEATHER SERVICE CHARLESTON SC 500 PM EDT SUN MAY 21 2017 NOTE: "FAIR" INDICATES FEW OR NO CLOUDS BELOW 12,000 FEET WITH NO SIGNIFICANT WEATHER AND/OR OBSTRUCTIONS TO VISIBILITY. NOT ALL STATIONS ARE QUALITY CONTROLLED. USE DATA WITH CAUTION... ESPECIALLY DEWPOINT OBSERVATIONS. SCZ027-030-031-034>040-042>050-212200- ...SOUTHEAST SOUTH CAROLINA... CITY SKY/WX TMP DP RH WIND PRES REMARKS N CHARLESTON PTSUNNY 80 70 71 SE18 30.08S WATERFRONT PRK N/A 79 74 85 SE14 30.07F JOHNS ISLAND FAIR 81 72 74 SE13 30.09S PINOPOLIS NOT AVBL MONCKS CORNER FAIR 81 66 61 SE9 30.08R SUMMERVILLE FAIR 82 68 61 SE6 30.07S BEAUFORT MCAS CLOUDY 80 74 81 S7 30.09R BEAUFORT ARPT MOCLDY 79 72 78 S6 30.09R HILTON HEAD IS PTSUNNY 79 73 83 S9G16 N/A WALTERBORO CLOUDY 79 68 69 S15G21 30.09R ALLENDALE FAIR 77 72 83 SE14G25 30.06R ...SOUTHERN MIDLANDS AND PEE DEE... CITY SKY/WX TMP DP RH WIND PRES REMARKS GEORGETOWN FAIR 81 68 65 E14 30.10F KINGSTREE FAIR 84 61 45 SE10 30.07R ORANGEBURG LGT RAIN 78 71 79 S8 30.06R BARNWELL MOCLDY 82 72 69 SE6G12 30.06S AIKEN FAIR 84 66 54 S13 30.07S MANNING FAIR 82 70 65 S9G16 30.06R COLUMBIA RAIN 75 71 87 SW7 30.05S FOG SUMTER CLOUDY 86 62 44 SE12 30.03R FLORENCE CLOUDY 85 65 51 SE12 30.06F MYRTLE BEACH MOSUNNY 81 72 74 SE13G23 30.11F N MYRTLE BEACH MOSUNNY 78 71 79 E16G22 30.11F $$ GAZ063-065-086>088-099>101-113>116-118-119-134>141-150-212200- ...SOUTHEAST GEORGIA... CITY SKY/WX TMP DP RH WIND PRES REMARKS SAVANNAH ARPT TSTM 77 72 84 N7 30.09R HUNTER AAF PTSUNNY 77 77 100 S6 30.06R FORT STEWART CLOUDY 86 73 66 SE10 30.05S HX 93 STATESBORO CLOUDY 85 71 62 S7 30.05S HX 91 SYLVANIA CLOUDY 87 72 61 S7 30.06S HX 93 CLAXTON FAIR 84 76 76 S5 30.06R HX 93 ...CSRA...CENTRAL AND FAR SOUTHEAST GEORGIA... CITY SKY/WX TMP DP RH WIND PRES REMARKS THOMSON CLOUDY 83 67 59 NW7 30.09S AUGUSTA-BUSH PTSUNNY 88 68 51 SW10 30.02S HX 91 AUGUSTA-DANIEL PTSUNNY 86 63 45 S8 30.04S SWAINSBORO CLOUDY 82 68 61 S5 30.06S VIDALIA CLOUDY 86 68 54 W6 30.06S EASTMAN FAIR 88 52 29 W5 30.08F HAZLEHURST FAIR 86 69 56 W7 30.05F HX 90 ALMA PTSUNNY 85 67 54 W8 30.06F WAYCROSS MOSUNNY 89 71 54 W5 30.06F HX 94 JESUP FAIR 86 63 45 W3 30.07S BAXLEY FAIR 84 72 65 SW5 30.07S BRUNSWICK CLOUDY 81 72 74 SE6 30.08F SAINT SIMONS CLOUDY 76 73 91 S8 30.07F $$ SCZ027-028-034-036>038-045-046-048>050-GAZ119-141-212200- ...LAKE AND SUPPLEMENTAL COASTAL OBSERVATIONS... STATION/POSITION TIME TEMP WIND PRES WAVE SWELL AIR SEA DIR/SP/G HT/PER HT/PER/DIR (UTC) (F) (DEG/KT/KT) (MB) (FT/S) (FT/S/D) WINYAH BAY 1945 79 130/ 10 1020.0 LAKE MURRAY 2020 76 180/ 6/ 8 1016.9R ACE BASIN NERRS NOT AVBL FORT PULASKI 2042 78 80 170/ 7/ 13 1019.5R SAPELO ISLAND 2000 71 CALM 1019.0 $$ ANZ835-935-AMZ111-154-330-350-352-354-370-450-454-472-212200- ...C-MAN AND BUOY OBSERVATIONS... STATION/POSITION TIME TEMP WIND PRES WAVE SWELL AIR SEA DIR/SP/G HT/PER HT/PER/DIR (UTC) (F) (DEG/KT/KT) (MB) (FT/S) (FT/S/D) BUOY 41004 2050 78 80 120/ 12/ 14 1018.9F 2/ 7 2/140/ 7 BUOY 41008 1950 78 78 160/ 12/ 14 1018.5 2/ 8 2/100/ 8 FOLLY BEACH CMAN 2000 78 120/ 14/ 15 1019.7F CAPERS NEARSHORE 2008 82 79 140/ 12/ 17 1018.8F FRIPP NEARSHORE 2008 79 79 140/ 14/ 16 1018.1F STATION/POSITION TIME TEMP WIND PRES WAVE SWELL AIR SEA DIR/SP/G HT/PER HT/PER/DIR (UTC) (F) (DEG/KT/KT) (MB) (FT/S) (FT/S/D) 5E ST. MARYS GA 2030 79 N/A 2/ 7 FRYING PAN BUOY 2050 76 78 70/ 14/ 16 1019.8F 3/ 5 2/140/ 8 BUOY 41025 2050 69 78 360/ 14/ 16 1020.5F 4/10 3/ 40/10 CAPE LOOKOUT NC 2000 72 50/ 14/ 15 1021.1F BUOY 41002 1950 76 81 340/ 4/ 6 1021.1 2/ 8 2/130/ 8 BUOY 41010 2050 78 79 130/ 8/ 12 1019.4F 2/ 7 2/100/ 7 ST AUGUSTINE FL 2100 78 81 140/ 12/ 13 1019.0F $$

USA.gov is the U.S. government's official web portal to all federal, state and local government web resources and services.